Flag for Germany Weather past 2 weeks in Göppingen, Baden-Württemberg, Germany

Now
41 °F

Passing clouds.


Feels Like: 38 °F
Forecast: 39 / 70 °F
Wind: 5 mph from East

Location: Stoetten


UV Index: 3 (Moderate)

Visibility: 25 mi


Pressure: 29.67 "Hg

Humidity: 91%

Dew point: 39 °F

Location of GöppingenLocation

Historic Weather in Göppingen

°F

Göppingen temperature yesterday

Maximum temperature yesterday: 58 °F (at 2:00 PM)
Minimum temperature yesterday: 44 °F (at 7:00 AM)
Average temperature yesterday: 50 °F

Past Weeks' High & Low Weather Summary

 TemperatureHumidityPressure
High64 °F (Apr 7, 4:00 PM)100% (Apr 6, 5:00 AM)30.41 "Hg (Apr 6, 5:00 AM)
Low30 °F (Apr 16, 7:00 AM)30% (Apr 17, 6:00 PM)29.64 "Hg (Apr 20, 5:00 PM)
Average46 °F72%30.07 "Hg
* Reported Apr 6 5:00 AM — Apr 21 5:00 AM, Göppingen, Weather by CustomWeather, © 2014

Note: Actual official high and low records may vary slightly from our data, if they occured in-between our weather recording intervals... More about our weather records

Advertising

Historic Weather Conditions — Data for Previous 24 hours

 ConditionsComfort  
Time TempWeatherWind HumidityBarometerVisibility
5:00 AM
Apr 21
41 °FOvercast.6 mph90%29.67 "Hg11 mi
4:00 AM41 °FPassing clouds.6 mph87%29.68 "Hg17 mi
3:00 AM42 °FPassing clouds.6 mph86%29.70 "Hg18 mi
2:00 AM43 °FClear.6 mph84%29.71 "Hg19 mi
1:00 AM44 °FClear.6 mph82%29.72 "Hg28 mi
12:00 AM46 °FClear.6 mph76%29.71 "Hg43 mi
11:00 PM
Apr 20
47 °FClear.6 mph73%29.71 "Hg43 mi
10:00 PM48 °FClear.7 mph71%29.70 "Hg43 mi
9:00 PM50 °FPassing clouds.8 mph65%29.68 "Hg47 mi
8:00 PM53 °FPassing clouds.7 mph61%29.66 "Hg47 mi
7:00 PM55 °FPassing clouds.6 mph59%29.64 "Hg47 mi
6:00 PM55 °FScattered clouds.8 mph58%29.65 "Hg47 mi
5:00 PM58 °FScattered clouds.6 mph53%29.64 "Hg47 mi
4:00 PM54 °FScattered clouds.8 mph57%29.67 "Hg47 mi
3:00 PM56 °FScattered clouds.9 mph60%29.67 "Hg47 mi
2:00 PM58 °FScattered clouds.6 mph58%29.66 "Hg47 mi
1:00 PM54 °FScattered clouds.7 mph68%29.69 "Hg43 mi
12:00 PM54 °FScattered clouds.7 mph69%29.69 "Hg40 mi
11:00 AM51 °FScattered clouds.7 mph75%29.71 "Hg37 mi
10:00 AM49 °FScattered clouds.8 mph82%29.71 "Hg34 mi
9:00 AM47 °FPartly sunny.8 mph87%29.73 "Hg16 mi
8:00 AM46 °FPassing clouds.7 mph90%29.72 "Hg12 mi
7:00 AM44 °FPassing clouds.8 mph95%29.72 "Hg12 mi
6:00 AM45 °FPassing clouds.8 mph92%29.71 "Hg12 mi
Weather by CustomWeather, © 2014

See weather overview